Location: Poughquag
(41.6090°N, 73.6820°W)
Time: 13:44:20
(UTC-04:00)

Altair - Pass Details

Date: 30 May 2020
Orbit: 1501 x 1683 km, 47.2° (Epoch: 05 July)

Event Time Altitude Azimuth Distance (km) Brightness Sun altitude
Rises 20:37:57 0° 188° (S) 4,776 9.8 -3.4°
Reaches altitude 10° 20:41:48 10° 175° (S) 3,825 9.2 -4.0°
Maximum altitude 20:49:02 24° 127° (SE) 2,928 8.4 -5.1°
Drops below altitude 10° 20:56:24 10° 79° (ENE) 3,926 9.3 -6.2°
Sets 21:00:23 0° 66° (ENE) 4,931 9.9 -6.8°
